Meacham, OR

10:22 PM PDT on June 22, 2018 (GMT -0700)
Meacham

Weather History for KMEH - August, 2016

Change the Weather History Date:

Friday, August 19, 2016

  Actual Average Record
Temperature  
Mean Temperature 60 °F -  
Max Temperature 79 °F 76 °F 87 °F (2006)
Min Temperature 41 °F 38 °F 28 °F (1996)
Degree Days  
Heating Degree Days 6    
Growing Degree Days 10 (Base 50)    
Moisture  
Dew Point 36 °F    
Average Humidity 45    
Maximum Humidity 76    
Minimum Humidity 20    
Precipitation  
Precipitation 0.00 in - - ()
Sea Level Pressure  
Sea Level Pressure 30.08 in    
Wind  
Wind Speed 1 mph (West)    
Max Wind Speed 9 mph    
Max Gust Speed -    
Visibility 10 miles    
Events      
Averages and records for this station are not official NWS values.
T = Trace of Precipitation, MM = Missing Value Source: NWS Daily Summary

Daily Weather History Graph

Daily Weather History Graph

Search for Another Location

Airport or City:

Astronomy

Aug. 19, 2016 Rise Set
Actual Time 5:59 AM PDT 7:53 PM PDT
Civil Twilight 5:28 AM PDT 8:25 PM PDT
Nautical Twilight 4:48 AM PDT 9:03 PM PDT
Astronomical Twilight 4:06 AM PDT 9:46 PM PDT
Moon 8:43 PM PDT (8/19) 7:28 AM PDT (8/19)
Length of Visible Light 14h 57m
Length of Day
13h 53m
Full, 97% of the Moon is Illuminated
Aug 19
Full
Aug 24
Last Quarter
Sep 1
New
Sep 9
First Quarter
Sep 16
Full

Hourly Weather History & Observations

Time (PDT) Temp. Dew Point Humidity Pressure Visibility Wind Dir Wind Speed Gust Speed Precip Events Conditions
12:56 AM 48.9 °F 35.1 °F 59% 30.03 in 10.0 mi Calm Calm - N/A   Clear
1:56 AM 46.9 °F 35.1 °F 63% 30.03 in 10.0 mi Calm Calm - N/A   Clear
2:56 AM 45.0 °F 35.1 °F 68% 30.04 in 10.0 mi Calm Calm - N/A   Clear
3:56 AM 43.0 °F 34.0 °F 71% 30.05 in 10.0 mi Calm Calm - N/A   Clear
4:56 AM 42.1 °F 34.0 °F 73% 30.06 in 10.0 mi Calm Calm - N/A   Clear
5:56 AM 41.0 °F 34.0 °F 76% 30.07 in 10.0 mi Calm Calm - N/A   Clear
6:56 AM 44.1 °F 34.0 °F 68% 30.09 in 10.0 mi Calm Calm - N/A   Clear
7:56 AM 55.0 °F 35.1 °F 47% 30.09 in 10.0 mi Calm Calm - N/A   Clear
8:56 AM 64.0 °F 43.0 °F 46% 30.10 in 10.0 mi West 4.6 mph - N/A   Clear
9:56 AM 68.0 °F 43.0 °F 40% 30.13 in 10.0 mi North - - N/A   Clear
10:56 AM 70.0 °F 41.0 °F 35% 30.13 in 10.0 mi Variable 5.8 mph - N/A   Clear
11:56 AM 73.0 °F 39.0 °F 29% 30.12 in 10.0 mi West 9.2 mph - N/A   Clear
12:56 PM 73.9 °F 37.9 °F 27% 30.13 in 10.0 mi Variable 3.5 mph - N/A   Clear
1:56 PM 75.9 °F 37.0 °F 24% 30.12 in 10.0 mi Variable 3.5 mph - N/A   Clear
2:56 PM 75.9 °F 36.0 °F 23% 30.11 in 10.0 mi Variable 5.8 mph - N/A   Clear
3:56 PM 78.1 °F 35.1 °F 21% 30.09 in 10.0 mi Calm Calm - N/A   Clear
4:56 PM 78.1 °F 34.0 °F 20% 30.08 in 10.0 mi Variable 4.6 mph - N/A   Clear
5:56 PM 75.9 °F 34.0 °F 22% 30.07 in 10.0 mi Variable 3.5 mph - N/A   Clear
6:56 PM 73.9 °F 34.0 °F 23% 30.07 in 10.0 mi Variable 3.5 mph - N/A   Clear
7:56 PM 66.9 °F 36.0 °F 32% 30.06 in 10.0 mi Calm Calm - N/A   Clear
8:56 PM 60.1 °F 36.0 °F 41% 30.07 in 10.0 mi Calm Calm - N/A   Clear
9:56 PM 55.9 °F 37.9 °F 51% 30.07 in 10.0 mi Calm Calm - N/A   Clear
10:56 PM 52.0 °F 37.9 °F 59% 30.08 in 10.0 mi Calm Calm - N/A   Clear
11:56 PM 48.0 °F 37.0 °F 66% 30.07 in 10.0 mi Calm Calm - N/A   Clear